Tracking 18673 objects as of 25-June-2017
HD Live streaming from Space Station
objects crossing your sky now

COSMOS 1285

Track COSMOS 1285 now!
COSMOS 1285 is classified as:


NORAD ID: 12627
Int'l Code: 1981-071A
Perigee: 5,653.5 km
Apogee: 35,172.6 km
Inclination: 68.9 °
Period: 727.1 minutes
Semi major axis: 26784 km
RCS: 7.7618 m2 (large)
Launch date: August 4, 1981
Source: Commonwealth of Independent States (former USSR) (CIS)
Launch site: PLESETSK MISSILE AND SPACE COMPLEX (PKMTR)
Your satellite tracking list
Your tracking list is empty





NASA's NSSDC Master Catalog

Two Line Element Set (TLE):
1 12627U 81071A   17174.15554517 +.00000774 +00000-0 +00000-0 0  9996
2 12627 068.8766 287.7283 5510565 075.9787 175.9256 01.98056105181514
Source of the keplerian elements: AFSPC